Location: Unnamed
(47.9062°N, 20.3783°E)
Time: 19:13:46
(UTC+02:00)

ISS - Visible Passes

Search period start: 15 May 2021 00:00
Search period end: 25 May 2021 00:00
Orbit: 417 x 422 km, 51.6° (Epoch: 15 May)

Date Brightness Start Highest point End Pass type
(mag) Time Alt. Az. Time Alt. Az. Time Alt. Az.
15 May -2.6 00:29:21 10° WNW 00:32:36 43° N 00:35:51 10° ENE visible
15 May -3.2 02:06:25 10° WNW 02:09:46 57° NNE 02:13:06 10° E visible
15 May -3.3 03:43:20 10° WNW 03:46:30 38° SW 03:49:40 10° SE visible
15 May -3.8 22:04:50 10° SW 22:08:09 60° SSE 22:11:29 10° ENE visible
15 May -2.8 23:41:47 10° W 23:45:03 47° N 23:48:21 10° ENE visible
16 May -2.8 01:18:57 10° WNW 01:22:14 48° N 01:25:32 10° E visible
16 May -3.8 02:55:48 10° WNW 02:59:07 57° SSW 03:02:27 10° SE visible
16 May -3.3 21:17:35 10° SW 21:20:46 40° SE 21:23:57 10° ENE visible
16 May -3.1 22:54:12 10° W 22:57:32 56° NNW 23:00:52 10° ENE visible
17 May -2.6 00:31:26 10° WNW 00:34:41 43° N 00:37:57 10° E visible
17 May -3.9 02:08:19 10° WNW 02:11:42 82° SSW 02:15:05 10° ESE visible
17 May -2.2 03:45:51 10° W 03:48:06 17° SW 03:50:21 10° S visible
17 May -3.5 22:06:40 10° WSW 22:10:01 71° NNW 22:13:24 10° ENE visible
17 May -2.5 23:43:54 10° WNW 23:47:08 42° N 23:49:59 13° ENE visible
18 May -2.4 01:20:51 10° WNW 01:22:53 33° WNW 01:22:53 33° WNW visible
18 May -3.8 21:19:11 10° WSW 21:22:32 86° SSE 21:25:56 10° ENE visible
18 May -2.5 22:56:20 10° WNW 22:59:34 43° N 23:02:49 10° ENE visible
19 May -3.1 00:33:23 10° WNW 00:36:27 55° N 00:36:27 55° N visible
19 May -2.7 22:08:44 10° W 22:12:01 47° N 22:15:18 10° ENE visible
19 May -2.8 23:45:54 10° WNW 23:49:11 48° N 23:50:15 34° ENE visible
20 May -1.2 01:22:46 10° WNW 01:23:11 13° WNW 01:23:11 13° WNW visible
20 May -3.0 21:21:09 10° W 21:24:28 56° NNW 21:27:48 10° ENE visible
20 May -2.6 22:58:23 10° WNW 23:01:37 43° N 23:04:10 15° ENE visible
21 May -2.2 00:35:15 10° WNW 00:37:04 29° WNW 00:37:04 29° WNW visible
21 May -2.5 22:10:49 10° WNW 22:14:04 42° N 22:17:18 10° ENE visible
21 May -3.6 23:47:47 10° WNW 23:51:02 73° N 23:51:02 73° N visible
22 May -2.5 21:23:14 10° WNW 21:26:28 43° N 21:29:44 10° ENE visible
22 May -3.2 23:00:18 10° WNW 23:03:38 58° NNE 23:05:00 31° E visible
23 May -1.3 00:37:13 10° WNW 00:37:56 15° W 00:37:56 15° W visible
23 May -2.9 22:12:47 10° WNW 22:16:05 48° N 22:19:00 12° E visible
23 May -2.7 23:49:38 10° WNW 23:51:56 37° W 23:51:56 37° W visible
24 May -2.6 21:25:15 10° WNW 21:28:30 43° N 21:31:45 10° E visible
24 May -3.9 23:02:08 10° WNW 23:05:30 81° SSW 23:05:58 63° SE visible
